This demonstration page uses our WeatherBlox Daily Observations layout. Learn more.

Left ArrowRight Arrow

Hourly Observations for July 31, 2021

Temp ( °F °C ) Dew Point ( °F °C ) Humidity (%) Winds ( mph kmh ) Pressure ( in mb ) Visibility ( mi km ) Precip ( " mm )
12:56 am 00:56 Cloudy with Mist and Fog 73 22.8 70 21.1 90 90 NNE 16 26 30.01 1016 4 6 0.00 0.00
1:23 am 01:23 Cloudy with Mist and Fog 72 22 70 21 94 94 NNE 15 24 30.00 1016 5 8 0.00 0.00
1:56 am 01:56 Cloudy with Mist and Fog 71 21.7 68 20 90 90 NNE 28 44 30.03 1017 5 8 0.00 0.00
2:40 am 02:40 Mostly Cloudy with Mist and Fog 70 21 66 19 88 88 ENE 12 19 29.99 1016 5 8 0.00 0.00
2:54 am 02:54 Partly Cloudy with Mist and Fog 70 21 66 19 88 88 ENE 12 19 29.99 1016 6 10 0.00 0.00
2:56 am 02:56 Partly Cloudy with Mist and Fog 70 21.1 66 18.9 87 87 ENE 12 19 30.01 1016 6 10 0.00 0.00
3:56 am 03:56 Mostly Cloudy with Mist and Fog 69 20.6 66 18.9 90 90 NE 7 11 30.03 1017 6 10 0.00 0.00
4:56 am 04:56 Partly Cloudy with Mist and Fog 68 20 66 18.9 93 93 ENE 7 11 30.02 1017 6 10 0.00 0.00
5:53 am 05:53 Mostly Cloudy with Mist and Fog 68 20 66 19 94 94 NNE 7 11 30.03 1017 5 8 0.00 0.00
5:56 am 05:56 Mostly Cloudy with Mist and Fog 69 20.6 67 19.4 93 93 NNE 6 9 30.04 1017 5 8 0.00 0.00
6:10 am 06:10 Cloudy with Mist and Fog 70 21 66 19 88 88 NE 6 9 30.02 1017 5 8 0.00 0.00
6:56 am 06:56 Cloudy with Mist and Fog 69 20.6 67 19.4 93 93 N 6 9 30.05 1018 4 6 0.00 0.00
7:56 am 07:56 Cloudy with Mist and Fog 68 20 66 18.9 93 93 N 14 22 30.08 1019 6 10 0.00 0.00
8:04 am 08:04 Cloudy 68 20 64 18 88 88 N 16 26 30.07 1018 7 11 0.00 0.00
8:56 am 08:56 Cloudy with Mist and Fog 67 19.4 64 17.8 91 91 N 17 28 30.12 1020 4 6 0.00 0.00
9:34 am 09:34 Cloudy with Mist and Fog 66 19 64 18 94 94 N 13 20 30.12 1020 3 4 0.00 0.00
9:53 am 09:53 Cloudy with Mist and Fog 66 19 63 17 88 88 NNE 17 28 30.12 1020 3 5 0.00 0.00
9:56 am 09:56 Cloudy with Mist and Fog 66 18.9 63 17.2 90 90 NNE 16 26 30.15 1021 3 5 0.00 0.00
10:27 am 10:27 Cloudy with Mist and Fog 66 19 64 18 94 94 NNE 14 22 30.13 1020 3 4 0.00 0.00
10:33 am 10:33 Cloudy with Mist and Fog 68 20 64 18 88 88 NNE 14 22 30.13 1020 3 5 0.00 0.00
10:56 am 10:56 Cloudy with Mist and Fog 68 20 64 17.8 87 87 NNE 12 19 30.15 1021 3 5 0.00 0.00
11:12 am 11:12 Cloudy with Haze 70 21 64 18 83 83 NE 13 20 30.12 1020 3 5 0.00 0.00
11:56 am 11:56 Cloudy with Haze 71 21.7 63 17.2 76 76 NNE 13 20 30.16 1021 3 5 0.00 0.00
12:25 pm 12:25 Cloudy with Haze 72 22 64 18 78 78 NNE 9 15 30.11 1020 3 4 0.00 0.00
12:47 pm 12:47 Cloudy with Haze 72 22 64 18 78 78 NNE 13 20 30.12 1020 3 5 0.00 0.00
12:56 pm 12:56 Cloudy with Haze 72 22.2 65 18.3 79 79 NNE 12 19 30.16 1021 3 5 0.00 0.00
1:31 pm 13:31 Mostly Cloudy with Haze 73 23 64 18 74 74 NE 8 13 30.11 1020 3 5 0.00 0.00
1:41 pm 13:41 Mostly Cloudy with Haze 73 23 64 18 74 74 NNE 7 11 30.11 1020 3 4 0.00 0.00
1:49 pm 13:49 Mostly Cloudy with Haze 73 23 64 18 74 74 ENE 9 15 30.11 1020 3 5 0.00 0.00
1:56 pm 13:56 Cloudy with Haze 75 23.9 66 18.9 74 74 NNE 9 15 30.16 1021 3 5 0.00 0.00
2:40 pm 14:40 Hazy 75 24 64 18 69 69 NE 12 19 30.10 1019 4 6 0.00 0.00
2:56 pm 14:56 Hazy 75 23.9 65 18.3 71 71 NNE 9 15 30.16 1021 4 6 0.00 0.00
3:56 pm 15:56 Hazy 74 23.3 64 17.8 71 71 N 12 19 30.16 1021 4 6 0.00 0.00
4:56 pm 16:56 Hazy 74 23.3 66 18.9 76 76 N 9 15 30.16 1021 4 6 0.00 0.00
5:56 pm 17:56 Hazy 76 24.4 65 18.3 69 69 NNW 7 11 30.14 1021 4 6 0.00 0.00
6:56 pm 18:56 Hazy 75 23.9 66 18.9 74 74 NNW 5 7 30.13 1020 4 6 0.00 0.00
7:56 pm 19:56 Hazy 75 23.9 67 19.4 76 76 NNW 5 7 30.13 1020 4 6 0.00 0.00
8:56 pm 20:56 Hazy 72 22.2 67 19.4 84 84 NNE 5 7 30.13 1020 4 6 0.00 0.00
9:56 pm 21:56 Hazy 71 21.7 66 18.9 84 84 NNW 3 6 30.15 1021 5 8 0.00 0.00
10:56 pm 22:56 Clear with Mist and Fog 68 20 64 17.8 87 87 Calm 30.17 1022 5 8 0.00 0.00
11:56 pm 23:56 Clear with Mist and Fog 68 20 64 17.8 87 87 NW 3 6 30.18 1022 5 8 0.00 0.00

Powered by AerisWeather